MAL7054 CYHZ-CYYZ

Flight info

Callsign MAL7054
Flight time N/A
Altitude 34000
Route CYHZ4/14 KELNO Q806 TUKIR RAGID6
Aircraft B752/M-SDE2E3FGHIJ3J4J7RWXY/LB1

Departure

Time 2026-04-28 00:10
Airport Halifax / Stanfield International Airport (CYHZ)

Arrival

Time N/A
Airport Toronto Pearson International Airport (CYYZ)
Time Latitude Longitude Altitude Speed Heading
2026-04-27 23:50 44.87130 -63.53270 455 ft 0 kts 340°
2026-04-27 23:53 44.87120 -63.53265 455 ft 1 kts 340°
2026-04-27 23:53 44.87104 -63.53257 455 ft 2 kts 340°
2026-04-27 23:54 44.87092 -63.53251 455 ft 2 kts 341°
2026-04-27 23:54 44.87082 -63.53247 454 ft 2 kts 351°
2026-04-27 23:54 44.87068 -63.53245 454 ft 2 kts 360°
2026-04-27 23:54 44.87053 -63.53247 454 ft 2 kts
2026-04-27 23:55 44.87040 -63.53251 453 ft 2 kts 18°
2026-04-27 23:55 44.87030 -63.53257 453 ft 0 kts 25°
2026-04-27 23:55 44.87025 -63.53260 453 ft 0 kts 27°
2026-04-27 23:57 44.87026 -63.53260 453 ft 0 kts 22°
2026-04-27 23:57 44.87029 -63.53259 453 ft 0 kts
2026-04-27 23:57 44.87039 -63.53254 453 ft 2 kts 42°
2026-04-27 23:58 44.87035 -63.53231 454 ft 2 kts 148°
2026-04-27 23:58 44.87029 -63.53229 454 ft 2 kts 174°
2026-04-27 23:58 44.87019 -63.53233 453 ft 3 kts 212°
2026-04-27 23:58 44.86985 -63.53288 451 ft 6 kts 220°
2026-04-27 23:59 44.86954 -63.53316 450 ft 7 kts 204°
2026-04-27 23:59 44.86916 -63.53324 449 ft 9 kts 168°
2026-04-27 23:59 44.86874 -63.53282 449 ft 8 kts 135°
2026-04-27 23:59 44.86833 -63.53215 448 ft 9 kts 130°
2026-04-28 00:00 44.86774 -63.53118 446 ft 13 kts 128°
2026-04-28 00:00 44.86732 -63.52979 447 ft 10 kts 74°
2026-04-28 00:00 44.86789 -63.52879 452 ft 16 kts 48°
2026-04-28 00:00 44.86887 -63.52753 459 ft 22 kts 35°
2026-04-28 00:01 44.87008 -63.52634 467 ft 18 kts 34°
2026-04-28 00:01 44.87111 -63.52531 468 ft 17 kts 36°
2026-04-28 00:01 44.87207 -63.52435 469 ft 17 kts 33°
2026-04-28 00:01 44.87307 -63.52337 470 ft 17 kts 35°
2026-04-28 00:02 44.87416 -63.52230 467 ft 22 kts 35°
2026-04-28 00:02 44.87558 -63.52090 466 ft 27 kts 35°
2026-04-28 00:02 44.87712 -63.51937 463 ft 27 kts 35°
2026-04-28 00:02 44.87872 -63.51781 460 ft 27 kts 34°
2026-04-28 00:03 44.88027 -63.51628 454 ft 27 kts 34°
2026-04-28 00:03 44.88183 -63.51472 451 ft 27 kts 34°
2026-04-28 00:03 44.88325 -63.51333 451 ft 24 kts 35°
2026-04-28 00:03 44.88440 -63.51202 452 ft 9 kts 22°
2026-04-28 00:04 44.88502 -63.51211 451 ft 14 kts 348°
2026-04-28 00:04 44.88694 -63.51186 451 ft 14 kts 81°
2026-04-28 00:04 44.88710 -63.51051 451 ft 14 kts 79°
2026-04-28 00:05 44.88734 -63.50921 453 ft 11 kts 54°
2026-04-28 00:05 44.88779 -63.50871 452 ft 6 kts 35°
2026-04-28 00:05 44.88791 -63.50859 452 ft 0 kts 35°
2026-04-28 00:05 44.88792 -63.50857 452 ft 2 kts 35°
2026-04-28 00:06 44.88836 -63.50813 451 ft 2 kts 35°
2026-04-28 00:08 44.88838 -63.50811 450 ft 0 kts 36°
2026-04-28 00:08 44.88860 -63.50776 449 ft 12 kts 67°
2026-04-28 00:08 44.88830 -63.50658 448 ft 14 kts 125°
2026-04-28 00:09 44.88776 -63.50572 451 ft 10 kts 159°
2026-04-28 00:09 44.88733 -63.50587 453 ft 0 kts 212°
2026-04-28 00:09 44.88684 -63.50634 454 ft 32 kts 214°
2026-04-28 00:10 44.88314 -63.50998 458 ft 97 kts 214°
2026-04-28 00:10 44.87582 -63.51722 465 ft 159 kts 214°
2026-04-28 00:10 44.86632 -63.52689 970 ft 177 kts 215°
2026-04-28 00:10 44.85680 -63.53752 1462 ft 177 kts 216°
2026-04-28 00:11 44.84638 -63.54886 1715 ft 196 kts 216°
2026-04-28 00:11 44.83614 -63.56012 2621 ft 179 kts 214°
2026-04-28 00:11 44.82643 -63.57155 2988 ft 193 kts 216°
2026-04-28 00:11 44.81549 -63.58450 3168 ft 219 kts 216°
2026-04-28 00:12 44.80290 -63.59906 3415 ft 246 kts 216°
2026-04-28 00:12 44.78913 -63.61473 4031 ft 257 kts 216°
2026-04-28 00:12 44.77644 -63.63338 4672 ft 270 kts 239°
2026-04-28 00:12 44.77128 -63.65830 5534 ft 271 kts 269°
2026-04-28 00:13 44.77370 -63.68433 6354 ft 272 kts 283°
2026-04-28 00:13 44.77761 -63.71006 7132 ft 274 kts 284°
2026-04-28 00:13 44.78254 -63.73529 8219 ft 263 kts 287°
2026-04-28 00:13 44.78759 -63.76021 8773 ft 274 kts 287°
2026-04-28 00:14 44.79275 -63.78666 9326 ft 284 kts 286°
2026-04-28 00:14 44.79784 -63.81309 10183 ft 283 kts 286°
2026-04-28 00:14 44.80298 -63.83987 10873 ft 287 kts 286°
2026-04-28 00:14 44.80821 -63.86723 11580 ft 291 kts 286°
2026-04-28 00:15 44.81363 -63.89566 11772 ft 315 kts 286°
2026-04-28 00:15 44.81962 -63.92714 11891 ft 341 kts 285°
2026-04-28 00:15 44.82599 -63.96070 12019 ft 366 kts 285°
2026-04-28 00:15 44.83260 -63.99569 12830 ft 369 kts 285°
2026-04-28 00:16 44.83920 -64.03069 13621 ft 373 kts 285°
2026-04-28 00:16 44.84591 -64.06628 14356 ft 378 kts 285°
2026-04-28 00:16 44.85269 -64.10231 15131 ft 382 kts 285°
2026-04-28 00:16 44.85950 -64.13854 15851 ft 386 kts 285°
2026-04-28 00:17 44.86635 -64.17509 16592 ft 390 kts 285°
2026-04-28 00:17 44.87322 -64.21180 17287 ft 393 kts 284°
2026-04-28 00:17 44.88008 -64.24860 17962 ft 397 kts 284°
2026-04-28 00:17 44.88711 -64.28633 18631 ft 401 kts 284°
2026-04-28 00:18 44.89416 -64.32429 19300 ft 404 kts 284°
2026-04-28 00:18 44.90128 -64.36266 19912 ft 407 kts 284°
2026-04-28 00:18 44.90839 -64.40109 20545 ft 410 kts 284°
2026-04-28 00:18 44.91570 -64.44067 21120 ft 414 kts 284°
2026-04-28 00:19 44.92293 -64.47990 21700 ft 418 kts 284°
2026-04-28 00:19 44.93027 -64.51977 22288 ft 420 kts 284°
2026-04-28 00:19 44.93756 -64.55948 22824 ft 423 kts 284°
2026-04-28 00:19 44.94500 -64.60013 23373 ft 426 kts 284°
2026-04-28 00:20 44.95239 -64.64053 23870 ft 430 kts 284°
2026-04-28 00:20 44.96000 -64.68229 24368 ft 433 kts 283°
2026-04-28 00:20 44.96752 -64.72354 24910 ft 435 kts 283°
2026-04-28 00:20 44.97510 -64.76530 25314 ft 440 kts 283°
2026-04-28 00:21 44.98275 -64.80749 25797 ft 442 kts 283°
2026-04-28 00:21 44.99030 -64.84927 26218 ft 446 kts 283°
2026-04-28 00:21 44.99795 -64.89171 26672 ft 448 kts 283°
2026-04-28 00:21 45.00528 -64.93243 27039 ft 452 kts 283°
2026-04-28 00:22 45.01282 -64.97445 27433 ft 455 kts 283°
2026-04-28 00:22 45.01805 -65.00369 27703 ft 457 kts 283°
2026-04-28 00:22 45.02496 -65.04232 28036 ft 459 kts 283°
2026-04-28 00:22 45.03217 -65.08270 28412 ft 461 kts 283°
2026-04-28 00:23 45.03817 -65.11643 28673 ft 464 kts 283°
2026-04-28 00:23 45.04501 -65.15492 29002 ft 466 kts 283°
2026-04-28 00:23 45.05218 -65.19534 29316 ft 469 kts 283°
2026-04-28 00:23 45.06011 -65.24022 29659 ft 471 kts 283°
2026-04-28 00:24 45.06672 -65.27763 29935 ft 474 kts 283°
2026-04-28 00:24 45.07415 -65.31982 30265 ft 475 kts 283°
2026-04-28 00:24 45.08224 -65.36593 30716 ft 474 kts 283°
2026-04-28 00:24 45.09277 -65.42602 31400 ft 471 kts 283°
2026-04-28 00:25 45.09805 -65.45623 31679 ft 471 kts 283°
2026-04-28 00:25 45.10592 -65.50137 32111 ft 469 kts 283°
2026-04-28 00:25 45.11307 -65.54250 32495 ft 468 kts 283°
2026-04-28 00:25 45.12087 -65.58746 32879 ft 467 kts 283°
2026-04-28 00:26 45.12855 -65.63184 33260 ft 466 kts 283°
2026-04-28 00:26 45.13634 -65.67693 33636 ft 465 kts 282°
2026-04-28 00:26 45.14397 -65.72125 33989 ft 464 kts 282°
2026-04-28 00:26 45.15157 -65.76556 34340 ft 463 kts 282°
2026-04-28 00:27 45.15913 -65.80969 34675 ft 462 kts 283°
2026-04-28 00:27 45.16663 -65.85361 34933 ft 463 kts 283°
2026-04-28 00:27 45.17421 -65.89809 35265 ft 462 kts 283°
2026-04-28 00:27 45.18171 -65.94223 35587 ft 460 kts 283°
2026-04-28 00:28 45.18923 -65.98656 35868 ft 459 kts 283°
2026-04-28 00:28 45.19664 -66.03037 36069 ft 460 kts 283°
2026-04-28 00:28 45.20404 -66.07429 36247 ft 461 kts 283°
2026-04-28 00:29 45.21886 -66.16239 36336 ft 459 kts 283°
2026-04-28 00:29 45.23355 -66.25016 36338 ft 458 kts 283°
2026-04-28 00:30 45.24822 -66.33833 36338 ft 458 kts 284°
2026-04-28 00:30 45.26277 -66.42622 36337 ft 458 kts 284°
2026-04-28 00:31 45.27725 -66.51414 36337 ft 458 kts 284°
2026-04-28 00:31 45.29163 -66.60194 36337 ft 458 kts 284°
2026-04-28 00:32 45.30605 -66.69038 36339 ft 459 kts 283°
2026-04-28 00:32 45.32040 -66.77893 36339 ft 459 kts 283°
2026-04-28 00:33 45.33461 -66.86700 36339 ft 459 kts 283°
2026-04-28 00:33 45.34879 -66.95544 36339 ft 459 kts 283°
2026-04-28 00:34 45.36293 -67.04408 36334 ft 458 kts 283°
2026-04-28 00:34 45.37691 -67.13213 36327 ft 458 kts 283°
2026-04-28 00:35 45.39089 -67.22067 36320 ft 459 kts 283°
2026-04-28 00:35 45.40478 -67.30915 36311 ft 459 kts 283°
2026-04-28 00:36 45.41851 -67.39703 36286 ft 458 kts 283°
2026-04-28 00:36 45.43226 -67.48553 36274 ft 458 kts 284°
2026-04-28 00:37 45.44603 -67.57469 36274 ft 459 kts 284°
2026-04-28 00:37 45.45960 -67.66304 36273 ft 458 kts 283°
2026-04-28 00:38 45.47305 -67.75108 36275 ft 458 kts 283°
2026-04-28 00:38 45.48655 -67.83984 36274 ft 458 kts 283°
2026-04-28 00:39 45.50000 -67.92889 36274 ft 458 kts 283°
2026-04-28 00:39 45.51324 -68.01704 36274 ft 457 kts 283°
2026-04-28 00:40 45.52654 -68.10602 36274 ft 457 kts 283°
2026-04-28 00:40 45.53968 -68.19450 36273 ft 458 kts 283°
2026-04-28 00:41 45.55274 -68.28288 36273 ft 458 kts 283°
2026-04-28 00:41 45.56583 -68.37198 36273 ft 458 kts 283°
2026-04-28 00:42 45.57877 -68.46065 36273 ft 458 kts 284°
2026-04-28 00:42 45.58772 -68.55043 36276 ft 459 kts 277°
2026-04-28 00:43 45.59270 -68.63975 36272 ft 459 kts 277°
2026-04-28 00:43 45.59724 -68.72757 36274 ft 459 kts 276°
2026-04-28 00:44 45.60174 -68.81861 36273 ft 459 kts 276°
2026-04-28 00:44 45.60606 -68.90830 36274 ft 459 kts 276°
2026-04-28 00:45 45.61034 -68.99901 36273 ft 459 kts 276°
2026-04-28 00:45 45.61457 -69.09010 36273 ft 459 kts 276°
2026-04-28 00:46 45.61871 -69.18130 36273 ft 459 kts 277°
2026-04-28 00:46 45.62276 -69.27175 36273 ft 459 kts 277°
2026-04-28 00:47 45.62677 -69.36314 36273 ft 459 kts 277°
2026-04-28 00:47 45.63068 -69.45385 36272 ft 459 kts 277°
2026-04-28 00:48 45.63452 -69.54465 36272 ft 459 kts 277°
2026-04-28 00:48 45.63830 -69.63577 36272 ft 459 kts 277°
2026-04-28 00:49 45.64202 -69.72701 36270 ft 460 kts 277°
2026-04-28 00:49 45.64566 -69.81829 36268 ft 460 kts 277°
2026-04-28 00:50 45.64921 -69.90910 36265 ft 459 kts 277°
2026-04-28 00:50 45.65271 -70.00036 36265 ft 460 kts 277°
2026-04-28 00:51 45.65611 -70.09131 36263 ft 458 kts 277°
2026-04-28 00:51 45.65945 -70.18201 36263 ft 459 kts 277°
2026-04-28 00:52 45.66272 -70.27302 36263 ft 459 kts 277°
2026-04-28 00:52 45.66594 -70.36464 36260 ft 459 kts 277°
2026-04-28 00:53 45.66906 -70.45602 36245 ft 458 kts 277°
2026-04-28 00:53 45.67211 -70.54713 36232 ft 457 kts 277°
2026-04-28 00:54 45.67510 -70.63854 36225 ft 456 kts 278°
2026-04-28 00:54 45.67799 -70.72907 36227 ft 456 kts 277°
2026-04-28 00:55 45.67882 -70.82096 36231 ft 460 kts 270°
2026-04-28 00:55 45.67323 -70.91248 36226 ft 460 kts 270°
2026-04-28 00:56 45.66748 -71.00370 36226 ft 459 kts 270°
2026-04-28 00:56 45.66159 -71.09488 36226 ft 459 kts 270°
2026-04-28 00:57 45.65558 -71.18636 36226 ft 458 kts 270°
2026-04-28 00:57 45.64955 -71.27690 36226 ft 458 kts 271°
2026-04-28 00:58 45.64346 -71.36728 36235 ft 458 kts 271°
2026-04-28 00:58 45.63726 -71.45800 36234 ft 457 kts 271°
2026-04-28 00:59 45.63099 -71.54886 36234 ft 457 kts 271°
2026-04-28 00:59 45.62466 -71.63946 36234 ft 457 kts 271°
2026-04-28 01:00 45.61823 -71.73045 36237 ft 458 kts 270°
2026-04-28 01:00 45.61176 -71.82089 36236 ft 457 kts 270°
2026-04-28 01:01 45.60521 -71.91154 36236 ft 457 kts 270°
2026-04-28 01:01 45.59861 -72.00182 36236 ft 458 kts 270°
2026-04-28 01:02 45.59192 -72.09223 36230 ft 455 kts 271°
2026-04-28 01:02 45.58520 -72.18234 36224 ft 456 kts 271°
2026-04-28 01:03 45.57839 -72.27246 36219 ft 456 kts 271°
2026-04-28 01:03 45.57131 -72.36266 36220 ft 454 kts 272°
2026-04-28 01:04 45.57022 -72.45236 36219 ft 450 kts 276°
2026-04-28 01:04 45.56897 -72.54164 36219 ft 450 kts 276°
2026-04-28 01:05 45.56729 -72.63092 36219 ft 449 kts 276°
2026-04-28 01:05 45.56540 -72.72034 36222 ft 449 kts 275°
2026-04-28 01:06 45.56340 -72.80915 36228 ft 448 kts 275°
2026-04-28 01:06 45.56132 -72.89830 36228 ft 448 kts 275°
2026-04-28 01:07 45.55915 -72.98750 36227 ft 446 kts 275°
2026-04-28 01:07 45.55691 -73.07654 36228 ft 446 kts 275°
2026-04-28 01:08 45.55463 -73.16507 36228 ft 446 kts 275°
2026-04-28 01:08 45.55225 -73.25368 36226 ft 442 kts 275°
2026-04-28 01:09 45.54985 -73.34132 36226 ft 443 kts 275°
2026-04-28 01:09 45.54736 -73.42966 36225 ft 443 kts 275°
2026-04-28 01:10 45.54481 -73.51791 36223 ft 443 kts 275°
2026-04-28 01:10 45.54220 -73.60516 36207 ft 442 kts 275°
2026-04-28 01:11 45.53950 -73.69357 36211 ft 442 kts 274°
2026-04-28 01:11 45.53675 -73.78185 36210 ft 443 kts 274°
2026-04-28 01:12 45.53392 -73.86995 36211 ft 443 kts 274°
2026-04-28 01:12 45.53104 -73.95760 36210 ft 442 kts 274°
2026-04-28 01:13 45.52808 -74.04554 36207 ft 441 kts 274°
2026-04-28 01:13 45.52356 -74.17636 36205 ft 441 kts 275°
2026-04-28 01:14 45.52044 -74.26407 36204 ft 441 kts 275°
2026-04-28 01:14 45.51726 -74.35184 36203 ft 439 kts 275°
2026-04-28 01:15 45.51398 -74.43931 36203 ft 441 kts 273°
2026-04-28 01:15 45.50401 -74.52644 36202 ft 447 kts 267°
2026-04-28 01:16 45.49214 -74.61365 36201 ft 446 kts 267°
2026-04-28 01:16 45.48010 -74.70039 36206 ft 446 kts 266°
2026-04-28 01:17 45.46788 -74.78741 36204 ft 446 kts 266°
2026-04-28 01:17 45.45564 -74.87402 36204 ft 446 kts 266°
2026-04-28 01:18 45.44334 -74.96035 36198 ft 444 kts 266°
2026-04-28 01:18 45.43101 -75.04651 36191 ft 445 kts 266°
2026-04-28 01:19 45.41851 -75.13272 36184 ft 443 kts 266°
2026-04-28 01:19 45.40592 -75.21922 36183 ft 444 kts 266°
2026-04-28 01:20 45.39337 -75.30484 36192 ft 441 kts 266°
2026-04-28 01:20 45.38071 -75.39079 36189 ft 440 kts 266°
2026-04-28 01:21 45.36223 -75.47408 36193 ft 456 kts 252°
2026-04-28 01:21 45.32780 -75.55201 36188 ft 464 kts 247°
2026-04-28 01:22 45.29596 -75.63081 36189 ft 459 kts 250°
2026-04-28 01:22 45.26587 -75.71152 36198 ft 459 kts 251°
2026-04-28 01:23 45.23671 -75.79192 36197 ft 458 kts 251°
2026-04-28 01:23 45.20793 -75.87193 36197 ft 456 kts 251°
2026-04-28 01:24 45.17915 -75.95211 36198 ft 458 kts 251°
2026-04-28 01:24 45.15001 -76.03308 36199 ft 455 kts 251°
2026-04-28 01:25 45.12123 -76.11282 36197 ft 452 kts 251°
2026-04-28 01:25 45.09251 -76.19228 36196 ft 452 kts 251°
2026-04-28 01:26 45.06367 -76.27183 36196 ft 452 kts 251°
2026-04-28 01:26 45.03471 -76.35146 36196 ft 452 kts 251°
2026-04-28 01:27 45.00576 -76.43082 36196 ft 451 kts 251°
2026-04-28 01:27 44.97695 -76.50958 36195 ft 451 kts 251°
2026-04-28 01:28 44.94790 -76.58879 36196 ft 452 kts 251°
2026-04-28 01:28 44.91864 -76.66828 36200 ft 451 kts 250°
2026-04-28 01:29 44.88963 -76.74691 36188 ft 451 kts 250°
2026-04-28 01:29 44.86058 -76.82536 36189 ft 451 kts 250°
2026-04-28 01:30 44.83162 -76.90340 36169 ft 450 kts 250°
2026-04-28 01:30 44.80207 -76.98135 36160 ft 451 kts 248°
2026-04-28 01:31 44.77110 -77.05788 36154 ft 450 kts 248°
2026-04-28 01:31 44.73999 -77.13472 36151 ft 449 kts 248°
2026-04-28 01:32 44.70898 -77.21111 36151 ft 449 kts 248°
2026-04-28 01:32 44.67797 -77.28735 36151 ft 449 kts 248°
2026-04-28 01:33 44.64674 -77.36391 36150 ft 448 kts 248°
2026-04-28 01:33 44.61577 -77.43963 36150 ft 447 kts 248°
2026-04-28 01:34 44.60019 -77.47755 36141 ft 435 kts 248°
2026-04-28 01:34 44.58535 -77.51362 35722 ft 429 kts 248°
2026-04-28 01:34 44.57052 -77.54983 34963 ft 431 kts 248°
2026-04-28 01:34 44.55538 -77.58667 34197 ft 431 kts 247°
2026-04-28 01:35 44.54046 -77.62294 33441 ft 432 kts 247°
2026-04-28 01:35 44.52532 -77.65970 32683 ft 438 kts 246°
2026-04-28 01:35 44.50980 -77.69734 31942 ft 446 kts 245°
2026-04-28 01:35 44.49430 -77.73481 31261 ft 452 kts 245°
2026-04-28 01:36 44.47831 -77.77337 30557 ft 457 kts 244°
2026-04-28 01:36 44.46224 -77.81210 29848 ft 463 kts 243°
2026-04-28 01:36 44.44593 -77.85129 29133 ft 462 kts 243°
2026-04-28 01:36 44.42960 -77.89044 28486 ft 458 kts 243°
2026-04-28 01:37 44.41363 -77.92872 27903 ft 452 kts 243°
2026-04-28 01:37 44.39790 -77.96635 27381 ft 445 kts 243°
2026-04-28 01:37 44.38238 -78.00346 26804 ft 440 kts 242°
2026-04-28 01:37 44.36699 -78.04024 26360 ft 432 kts 242°
2026-04-28 01:38 44.35174 -78.07664 25773 ft 429 kts 242°
2026-04-28 01:38 44.33680 -78.11217 25295 ft 423 kts 242°
2026-04-28 01:38 44.32181 -78.14783 24837 ft 420 kts 242°
2026-04-28 01:38 44.30695 -78.18312 24384 ft 417 kts 241°
2026-04-28 01:39 44.29224 -78.21801 23934 ft 413 kts 241°
2026-04-28 01:39 44.27763 -78.25260 23486 ft 409 kts 241°
2026-04-28 01:39 44.26311 -78.28693 23043 ft 408 kts 241°
2026-04-28 01:39 44.24873 -78.32092 22602 ft 404 kts 241°
2026-04-28 01:40 44.23437 -78.35482 22163 ft 402 kts 241°
2026-04-28 01:40 44.22012 -78.38841 21727 ft 398 kts 240°
2026-04-28 01:40 44.20591 -78.42185 21292 ft 395 kts 240°
2026-04-28 01:40 44.19206 -78.45444 20868 ft 392 kts 240°
2026-04-28 01:41 44.17800 -78.48747 20438 ft 391 kts 240°
2026-04-28 01:41 44.16415 -78.51996 20015 ft 388 kts 240°
2026-04-28 01:41 44.15041 -78.55216 19593 ft 384 kts 240°
2026-04-28 01:41 44.13672 -78.58424 19172 ft 383 kts 240°
2026-04-28 01:42 44.12322 -78.61580 18758 ft 381 kts 240°
2026-04-28 01:42 44.10948 -78.64790 18335 ft 377 kts 239°
2026-04-28 01:42 44.09665 -78.67918 17929 ft 374 kts 243°
2026-04-28 01:42 44.08526 -78.71191 17520 ft 372 kts 244°
2026-04-28 01:43 44.07368 -78.74394 17113 ft 370 kts 239°
2026-04-28 01:43 44.06464 -78.76311 16872 ft 368 kts 236°
2026-04-28 01:43 44.05058 -78.79294 16488 ft 367 kts 237°
2026-04-28 01:43 44.04200 -78.81145 16242 ft 365 kts 237°
2026-04-28 01:44 44.03105 -78.83491 15939 ft 363 kts 236°
2026-04-28 01:44 44.01934 -78.85991 15621 ft 362 kts 236°
2026-04-28 01:44 44.00567 -78.88903 15412 ft 352 kts 236°
2026-04-28 01:44 43.99265 -78.91671 15359 ft 336 kts 236°
2026-04-28 01:45 43.98052 -78.94246 14892 ft 335 kts 236°
2026-04-28 01:45 43.96784 -78.96934 14420 ft 333 kts 236°
2026-04-28 01:45 43.95840 -78.98934 14108 ft 330 kts 236°
2026-04-28 01:45 43.94573 -79.01617 13651 ft 327 kts 236°
2026-04-28 01:46 43.93323 -79.04265 13189 ft 325 kts 236°
2026-04-28 01:46 43.92460 -79.06136 12876 ft 323 kts 237°
2026-04-28 01:46 43.91450 -79.08333 12537 ft 320 kts 237°
2026-04-28 01:46 43.90261 -79.10917 12080 ft 319 kts 237°
2026-04-28 01:47 43.89233 -79.13148 11705 ft 317 kts 236°
2026-04-28 01:47 43.88427 -79.14896 11430 ft 314 kts 236°
2026-04-28 01:47 43.87265 -79.17414 11051 ft 311 kts 236°
2026-04-28 01:47 43.86104 -79.19927 11011 ft 309 kts 236°
2026-04-28 01:48 43.84981 -79.22355 11014 ft 312 kts 236°
2026-04-28 01:48 43.83836 -79.24828 10984 ft 312 kts 236°
2026-04-28 01:48 43.82720 -79.27240 10947 ft 299 kts 236°
2026-04-28 01:48 43.81655 -79.29542 10921 ft 280 kts 235°
2026-04-28 01:49 43.80629 -79.31753 10432 ft 276 kts 235°
2026-04-28 01:49 43.79605 -79.33958 9822 ft 275 kts 234°
2026-04-28 01:49 43.78756 -79.36240 9621 ft 266 kts 251°
2026-04-28 01:49 43.78427 -79.38648 9523 ft 250 kts 257°
2026-04-28 01:50 43.78166 -79.40971 9274 ft 246 kts 256°
2026-04-28 01:50 43.77908 -79.43336 9021 ft 244 kts 256°
2026-04-28 01:50 43.77666 -79.45623 8774 ft 242 kts 256°
2026-04-28 01:50 43.77432 -79.47876 8530 ft 240 kts 256°
2026-04-28 01:51 43.77229 -79.49852 8317 ft 239 kts 256°
2026-04-28 01:51 43.76745 -79.54589 7994 ft 229 kts 256°
2026-04-28 01:51 43.76519 -79.56780 7690 ft 232 kts 255°
2026-04-28 01:52 43.76291 -79.58982 7397 ft 233 kts 255°
2026-04-28 01:52 43.76067 -79.61184 7158 ft 231 kts 255°
2026-04-28 01:52 43.75837 -79.63406 6882 ft 232 kts 255°
2026-04-28 01:52 43.75612 -79.65588 6650 ft 230 kts 254°
2026-04-28 01:53 43.75389 -79.67750 6389 ft 230 kts 253°
2026-04-28 01:53 43.75160 -79.69949 6105 ft 231 kts 253°
2026-04-28 01:53 43.74715 -79.71957 6003 ft 210 kts 227°
2026-04-28 01:53 43.73763 -79.73446 6027 ft 209 kts 219°
2026-04-28 01:54 43.72798 -79.74977 6003 ft 209 kts 223°
2026-04-28 01:54 43.71901 -79.76558 6006 ft 210 kts 225°
2026-04-28 01:54 43.71003 -79.78155 5981 ft 211 kts 220°
2026-04-28 01:54 43.69941 -79.79616 5621 ft 214 kts 217°
2026-04-28 01:55 43.68874 -79.81074 5261 ft 219 kts 218°
2026-04-28 01:55 43.67811 -79.82569 4831 ft 216 kts 219°
2026-04-28 01:55 43.66810 -79.84016 4805 ft 202 kts 221°
2026-04-28 01:55 43.65856 -79.85457 4595 ft 207 kts 211°
2026-04-28 01:56 43.64584 -79.86297 4148 ft 202 kts 188°
2026-04-28 01:56 43.63228 -79.86434 3968 ft 188 kts 171°
2026-04-28 01:56 43.62015 -79.86031 3883 ft 173 kts 155°
2026-04-28 01:56 43.61022 -79.85249 3862 ft 163 kts 142°
2026-04-28 01:57 43.60180 -79.84133 3643 ft 167 kts 130°
2026-04-28 01:57 43.59573 -79.82768 3449 ft 167 kts 116°
2026-04-28 01:57 43.59237 -79.81258 3263 ft 165 kts 104°
2026-04-28 01:57 43.59182 -79.79645 3071 ft 172 kts 91°
2026-04-28 01:58 43.59433 -79.78031 2845 ft 174 kts 76°
2026-04-28 01:58 43.59976 -79.76571 2621 ft 179 kts 62°
2026-04-28 01:58 43.60812 -79.75367 2457 ft 182 kts 43°
2026-04-28 01:58 43.61741 -79.74492 2438 ft 152 kts 46°
2026-04-28 01:59 43.62489 -79.73581 2118 ft 143 kts 51°
2026-04-28 01:59 43.63128 -79.72629 1782 ft 137 kts 50°
2026-04-28 01:59 43.63756 -79.71729 1585 ft 132 kts 50°
2026-04-28 01:59 43.64394 -79.70805 1442 ft 137 kts 50°
2026-04-28 02:00 43.64941 -79.70005 1337 ft 138 kts 53°
2026-04-28 02:00 43.66138 -79.68272 982 ft 138 kts 50°
2026-04-28 02:00 43.66747 -79.67381 837 ft 135 kts 50°